FW1657 Weather Reports


Display with metric or nautical units.
time (UTC)temp
F
wind
direction
speed
MPH
gust
MPH
rain 1hr
in
rain 24hr
in
rain mn
in
humidity
%
barometer
mb
20260507113020 54 186 1.0 4.0 0.00 0.00 0.00 74 1016.5
20260507111522 54 287 3.0 6.0 0.00 0.00 0.00 75 1016.5
20260507110018 53 196 2.0 7.0 0.00 0.00 0.00 76 1016.4
20260507104516 53 279 3.0 7.0 0.00 0.00 0.00 76 1016.4
20260507103016 53 253 2.0 7.0 0.00 0.00 0.00 75 1016.4
20260507101519 53 316 5.0 9.0 0.00 0.00 0.00 76 1016.3
20260507100013 53 314 3.0 6.0 0.00 0.00 0.00 76 1016.2
20260507094512 54 244 0.0 8.0 0.00 0.00 0.00 74 1016.0
20260507093009 53 149 2.0 8.0 0.00 0.00 0.00 76 1015.9
20260507091504 51 261 4.0 9.0 0.00 0.00 0.00 80 1015.8
20260507090006 50 217 3.0 6.0 0.00 0.01 0.00 82 1015.8
20260507084502 50 181 4.0 10.0 0.00 0.01 0.00 82 1015.4
20260507083003 50 200 3.0 8.0 0.00 0.01 0.00 84 1015.5
20260507081604 50 153 3.0 6.0 0.00 0.01 0.00 83 1015.3
20260507080058 50 200 5.0 10.0 0.00 0.01 0.00 83 1015.1
20260507074559 51 196 6.0 12.0 0.00 0.03 0.00 82 1015.1
20260507073053 49 167 4.0 8.0 0.00 0.03 0.00 87 1014.8
20260507071556 48 201 4.0 8.0 0.00 0.03 0.00 87 1014.9
20260507070100 49 171 4.0 8.0 0.00 0.03 0.00 89 1014.8
20260507064547 47 175 4.0 9.0 0.00 0.04 0.00 91 1014.6
20260507063043 46 159 4.0 9.0 0.00 0.04 0.00 94 1014.5
20260507061542 45 209 3.0 5.0 0.00 0.04 0.00 94 1014.6
20260507060053 44 104 0.0 2.0 0.00 0.04 0.00 94 1014.5
20260507054541 43 104 0.0 1.0 0.00 0.05 0.00 94 1014.2
20260507053045 43 104 1.0 4.0 0.00 0.05 0.00 94 1014.1
20260507051541 43 102 0.0 3.0 0.00 0.05 0.00 94 1013.9
20260507050041 43 102 1.0 3.0 0.00 0.05 0.00 94 1013.7
20260507044534 42 102 2.0 4.0 0.00 0.05 0.00 94 1013.5
20260507043032 42 85 0.0 0.0 0.00 0.05 0.00 93 1013.3
20260507041532 42 85 0.0 0.0 0.00 0.05 0.00 93 1013.1
20260507040030 42 85 0.0 0.0 0.00 0.05 0.00 93 1013.0
20260507034548 41 85 1.0 3.0 0.00 0.05 0.00 93 1012.9
20260507033031 41 85 1.0 4.0 0.00 0.05 0.00 93 1012.9
20260507031526 42 83 0.0 3.0 0.00 0.05 0.00 92 1012.8
20260507030025 42 84 1.0 2.0 0.00 0.05 0.00 92 1012.7
20260507024538 42 84 2.0 4.0 0.00 0.05 0.00 92 1012.8
20260507023020 43 165 0.0 0.0 0.00 0.05 0.00 91 1012.6
20260507021520 43 165 1.0 4.0 0.00 0.05 0.00 91 1012.6
20260507020017 43 169 2.0 6.0 0.00 0.05 0.00 91 1012.4
20260507014528 44 160 3.0 5.0 0.00 0.05 0.00 91 1012.4
20260507013011 44 127 0.0 0.0 0.00 0.05 0.00 91 1012.4
20260507011521 44 127 0.0 0.0 0.00 0.05 0.00 91 1012.3
20260507010016 44 127 0.0 1.0 0.00 0.05 0.00 91 1012.2
20260507004508 44 127 0.0 4.0 0.00 0.05 0.00 91 1012.2
20260507003015 44 166 0.0 0.0 0.00 0.05 0.00 91 1012.0
20260507001507 44 166 0.0 4.0 0.00 0.05 0.00 90 1012.1
20260507000004 44 170 3.0 6.0 0.00 0.05 0.00 90 1012.1
20260506234502 45 147 3.0 6.0 0.00 0.05 0.00 90 1012.0
20260506233109 45 149 2.0 5.0 0.00 0.05 0.00 90 1011.9
20260506231559 45 148 2.0 6.0 0.00 0.05 0.00 91 1011.9
20260506230056 45 124 2.0 4.0 0.00 0.05 0.00 91 1011.7
20260506224555 46 145 2.0 3.0 0.00 0.06 0.00 91 1011.5
20260506223058 46 145 0.0 3.0 0.00 0.06 0.00 90 1011.6
20260506221550 46 144 2.0 4.0 0.00 0.06 0.00 90 1011.3
20260506220051 46 165 3.0 5.0 0.00 0.06 0.00 90 1011.1
20260506214544 46 136 3.0 6.0 0.00 0.06 0.06 90 1011.1
20260506213043 46 136 3.0 8.0 0.00 0.06 0.06 90 1011.0
20260506211550 47 134 3.0 8.0 0.00 0.06 0.06 89 1010.9
20260506210041 47 146 2.0 6.0 0.00 0.06 0.06 89 1010.9
20260506204539 47 154 3.0 6.0 0.00 0.06 0.06 88 1010.7
20260506203038 47 180 3.0 6.0 0.00 0.06 0.06 88 1010.8
20260506201537 47 165 3.0 6.0 0.00 0.06 0.06 88 1010.6
20260506200035 47 165 2.0 4.0 0.00 0.06 0.06 87 1010.6
20260506194537 48 162 1.0 5.0 0.00 0.11 0.06 87 1010.4
20260506193034 48 152 2.0 5.0 0.00 0.11 0.06 87 1010.2
20260506191533 48 175 4.0 6.0 0.00 0.11 0.06 86 1009.7
20260506190029 48 177 3.0 6.0 0.00 0.11 0.06 87 1009.6
20260506184526 48 170 3.0 4.0 0.00 0.23 0.06 86 1009.4
20260506183023 49 191 3.0 8.0 0.00 0.23 0.06 87 1009.3
20260506181521 49 174 6.0 12.0 0.00 0.23 0.06 86 1009.3
20260506180018 50 171 6.0 13.0 0.00 0.23 0.06 85 1008.9
20260506174515 50 191 3.0 7.0 0.00 0.28 0.06 85 1008.7
20260506173014 50 229 3.0 12.0 0.00 0.28 0.06 85 1008.5
20260506171512 50 200 4.0 9.0 0.00 0.28 0.06 86 1008.4
20260506170011 50 186 7.0 12.0 0.00 0.28 0.06 85 1008.2
20260506164510 51 175 3.0 8.0 0.00 0.28 0.06 86 1008.2
20260506163009 51 166 5.0 9.0 0.00 0.28 0.06 85 1008.3
20260506161510 51 181 4.0 10.0 0.00 0.28 0.06 86 1008.2
20260506160008 51 200 4.0 12.0 0.00 0.28 0.06 86 1008.2
20260506154506 51 222 4.0 10.0 0.00 0.28 0.06 86 1008.1
20260506153005 51 161 5.0 10.0 0.00 0.28 0.06 86 1008.0
20260506151503 51 156 3.0 10.0 0.00 0.28 0.06 87 1007.9
20260506150002 51 165 5.0 12.0 0.00 0.31 0.06 87 1007.8
20260506144503 52 167 7.0 11.0 0.00 0.31 0.06 88 1007.7
20260506143100 51 208 6.0 13.0 0.00 0.31 0.06 90 1007.6
20260506141600 51 163 7.0 11.0 0.00 0.31 0.06 91 1007.7
20260506140122 50 191 7.0 10.0 0.00 0.31 0.06 91 1007.8
20260506134558 51 150 4.0 10.0 0.00 0.32 0.06 89 1007.7
20260506133134 51 152 5.0 9.0 0.00 0.32 0.06 90 1007.9
20260506131557 51 153 5.0 11.0 0.00 0.32 0.06 89 1007.7
20260506130137 51 136 5.0 9.0 0.00 0.32 0.06 89 1007.6
20260506124554 52 146 7.0 12.0 0.00 0.35 0.06 90 1007.5
20260506123052 51 181 5.0 9.0 0.00 0.35 0.06 91 1007.3
20260506121554 51 161 5.0 10.0 0.00 0.35 0.06 92 1007.2
20260506120052 50 129 4.0 8.0 0.00 0.35 0.06 92 1007.2
20260506114549 50 150 3.0 5.0 0.00 0.36 0.06 92 1007.1